Location: Amherst
(42.5000°N, 72.5000°W)
Time: 04:05:10
(UTC-04:00)

ISS - Pass Details

Date: 20 July 2018
Orbit: 402 x 408 km, 51.6° (Epoch: 19 July)

Event Time Altitude Azimuth Distance (km) Brightness Sun altitude
Rises 00:49:34 0° 291° (WNW) 2,324 0.3 -26.8°
Reaches altitude 10° 00:52:10 10° 313° (NW) 1,466 -0.5 -26.8°
Maximum altitude 00:54:24 17° 356° (N) 1,127 -0.8 -26.8°
Drops below altitude 10° 00:56:38 10° 39° (NE) 1,469 -0.4 -26.8°
Sets 00:59:15 0° 61° (ENE) 2,331 0.4 -26.8°
